This demonstration page uses our WeatherBlox Daily Observations layout. Learn more.

Left ArrowRight Arrow

Hourly Observations for October 12, 2019

Temp ( °F °C ) Dew Point ( °F °C ) Humidity (%) Winds ( mph kmh ) Pressure ( in mb ) Visibility ( mi km ) Precip ( " mm )
12:53 am 00:53 Clear 44 6.7 17 -8.3 34 34 ESE 6 9 30.26 1025 10 16 0.00 0.00
1:53 am 01:53 Clear 43 6.1 16 -8.9 34 34 E 6 9 30.25 1024 10 16 0.00 0.00
2:53 am 02:53 Clear 44 6.7 15 -9.4 31 31 ESE 7 11 30.23 1024 10 16 0.00 0.00
3:53 am 03:53 Clear 42 5.6 15 -9.4 33 33 E 7 11 30.23 1024 10 16 0.00 0.00
4:53 am 04:53 Clear 41 5 15 -9.4 35 35 ESE 8 13 30.21 1023 10 16 0.00 0.00
5:53 am 05:53 Clear 41 5 16 -8.9 36 36 E 8 13 30.21 1023 10 16 0.00 0.00
6:53 am 06:53 Cloudy 42 5.6 17 -8.3 36 36 E 8 13 30.20 1023 10 16 0.00 0.00
7:53 am 07:53 Mostly Cloudy 43 6.1 17 -8.3 35 35 ESE 6 9 30.21 1023 10 16 0.00 0.00
8:53 am 08:53 Cloudy 45 7.2 18 -7.8 34 34 E 7 11 30.21 1023 10 16 0.00 0.00
9:53 am 09:53 Cloudy 50 10 17 -8.3 27 27 SE 10 17 30.21 1023 10 16 0.00 0.00
10:53 am 10:53 Cloudy 53 11.7 18 -7.8 25 25 SSE 9 15 30.20 1023 10 16 0.00 0.00
11:53 am 11:53 Cloudy 59 15 12 -11.1 15 15 SE 15 24 30.16 1022 10 16 0.00 0.00
12:53 pm 12:53 Sunny 63 17.2 16 -8.9 16 16 SE 14 22 30.14 1021 10 16 0.00 0.00
1:53 pm 13:53 Mostly Sunny 63 17.2 20 -6.7 19 19 SE 12 19 30.09 1019 10 16 0.00 0.00
2:53 pm 14:53 Mostly Sunny 67 19.4 22 -5.6 18 18 S 10 17 30.03 1017 10 16 0.00 0.00
3:53 pm 15:53 Mostly Sunny 69 20.6 28 -2.2 22 22 SSE 12 19 29.98 1015 10 16 0.00 0.00
4:53 pm 16:53 Sunny 70 21.1 29 -1.7 22 22 S 12 19 29.96 1015 10 16 0.00 0.00
5:53 pm 17:53 Mostly Cloudy 70 21.1 31 -0.6 23 23 S 9 15 29.94 1014 10 16 0.00 0.00
6:53 pm 18:53 Sunny 70 21.1 30 -1.1 23 23 SSE 8 13 29.94 1014 10 16 0.00 0.00
7:53 pm 19:53 Clear 66 18.9 31 -0.6 27 27 SE 10 17 29.93 1014 10 16 0.00 0.00
8:53 pm 20:53 Clear 62 16.7 28 -2.2 28 28 SE 10 17 29.94 1014 10 16 0.00 0.00
9:53 pm 21:53 Clear 60 15.6 28 -2.2 30 30 ESE 9 15 29.94 1014 10 16 0.00 0.00
10:53 pm 22:53 Clear 58 14.4 30 -1.1 35 35 SE 10 17 29.93 1014 10 16 0.00 0.00
11:53 pm 23:53 Clear 57 13.9 28 -2.2 33 33 ESE 10 17 29.93 1013 10 16 0.00 0.00

Powered by AerisWeather